Weather History for Tomahawk, WI

Change the Weather History Date:

Wednesday, January 23, 2013

  Actual Average (KRHI) Record (KRHI)
Temperature  
Mean Temperature -4 °F 12 °F  
Max Temperature 10 °F 21 °F 52 °F (1942)
Min Temperature -18 °F 3 °F -36 °F (1935)
Degree Days  
Heating Degree Days 69 53  
Month to date heating degree days 1214  
Since 1 July heating degree days 4840  
Cooling Degree Days 0 0  
Month to date cooling degree days 0  
Year to date cooling degree days 0  
Moisture  
Dew Point -10 °F    
Average Humidity 74    
Maximum Humidity 85    
Minimum Humidity 61    
Precipitation  
Precipitation 0.00 in 0.03 in 0.44 in (2012)
Month to date precipitation 0.83  
Year to date precipitation 0.83  
Snow  
Snow 0.00 in - 5.30 in (1979)
Month to date snowfall  
Since 1 July snowfall  
Snow Depth -    
Sea Level Pressure  
Sea Level Pressure 30.12 in    
Wind  
Wind Speed 3 mph (WNW)    
Max Wind Speed 15 mph    
Max Gust Speed 24 mph    
Visibility 8 miles    
Events Snow    
T = Trace of Precipitation, MM = Missing Value Source: NWS Daily Summary

Daily Weather History Graph

Daily Weather History Graph

Search for Another Location

Airport:

Trip Planner

Search our weather history database for the weather conditions in past years. The results will help you decide how hot, cold, wet, or windy it might be!

Date:

Astronomy

Jan. 23, 2013 Rise Set
Actual Time 7:29 AM CST 4:53 PM CST
Civil Twilight 6:56 AM CST 5:25 PM CST
Nautical Twilight 6:20 AM CST 6:02 PM CST
Astronomical Twilight 5:45 AM CST 6:37 PM CST
Moon 2:01 PM CST (1/23) 4:43 AM CST (1/23)
Length of Visible Light 10h 28m
Length of Day
9h 24m
Waxing Gibbous, 89% of the Moon is Illuminated
Jan 23
Waxing Gibbous
Jan 26
Full
Feb 3
Last Quarter
Feb 10
New
Feb 17
First Quarter

Hourly Weather History & Observations

Time (CST) Temp. Windchill Dew Point Humidity Pressure Visibility Wind Dir Wind Speed Gust Speed Precip Events Conditions
12:15 AM -16.6 °F - -23.8 °F 70% 30.14 in 10.0 mi Calm Calm - N/A   Clear
12:35 AM -16.6 °F - -22.0 °F 76% 30.14 in 10.0 mi Calm Calm - N/A   Clear
12:55 AM -18.4 °F - -23.8 °F 76% 30.13 in 10.0 mi Calm Calm - N/A   Clear
1:15 AM -18.4 °F - -25.6 °F 70% 30.13 in 10.0 mi Calm Calm - N/A   Clear
1:35 AM -18.4 °F - -25.6 °F 70% 30.13 in 10.0 mi Calm Calm - N/A   Clear
1:55 AM -18.4 °F - -25.6 °F 70% 30.12 in 10.0 mi Calm Calm - N/A   Clear
2:15 AM -18.4 °F - -25.6 °F 70% 30.12 in 10.0 mi Calm Calm - N/A   Mostly Cloudy
2:35 AM -18.4 °F - -23.8 °F 76% 30.12 in 10.0 mi Calm Calm - N/A   Overcast
2:55 AM -16.6 °F - -23.8 °F 70% 30.11 in 10.0 mi Calm Calm - N/A   Overcast
3:15 AM -16.6 °F - -22.0 °F 76% 30.11 in 10.0 mi Calm Calm - N/A   Overcast
3:35 AM -13.0 °F - -16.6 °F 84% 30.10 in 10.0 mi Calm Calm - N/A   Overcast
3:55 AM -11.2 °F - -16.6 °F 77% 30.10 in 10.0 mi Calm Calm - N/A   Mostly Cloudy
4:15 AM -13.0 °F - -16.6 °F 84% 30.09 in 10.0 mi Calm Calm - N/A   Mostly Cloudy
4:35 AM -13.0 °F - -18.4 °F 77% 30.08 in 10.0 mi Calm Calm - N/A   Overcast
4:55 AM -13.0 °F - -18.4 °F 77% 30.08 in 10.0 mi Calm Calm - N/A   Overcast
5:15 AM -13.0 °F - -18.4 °F 77% 30.08 in 10.0 mi Calm Calm - N/A   Overcast
5:35 AM -13.0 °F - -16.6 °F 84% 30.08 in 10.0 mi Calm Calm - N/A   Overcast
5:55 AM -13.0 °F - -18.4 °F 77% 30.08 in 10.0 mi Calm Calm - N/A   Overcast
6:15 AM -13.0 °F - -16.6 °F 84% 30.08 in 10.0 mi Calm Calm - N/A   Overcast
6:35 AM -9.4 °F - -14.8 °F 77% 30.07 in 10.0 mi Calm Calm - N/A   Overcast
6:55 AM -7.6 °F - -13.0 °F 77% 30.06 in 10.0 mi Calm Calm - N/A   Overcast
7:15 AM -7.6 °F - -13.0 °F 77% 30.05 in 10.0 mi Calm Calm - N/A   Overcast
7:35 AM -7.6 °F - -13.0 °F 77% 30.05 in 10.0 mi Calm Calm - N/A   Overcast
7:55 AM -5.8 °F - -9.4 °F 84% 30.05 in 5.0 mi Calm Calm - N/A   Overcast
8:15 AM -4.0 °F - -9.4 °F 78% 30.05 in 3.0 mi Calm Calm - N/A   Haze
8:35 AM -4.0 °F - -7.6 °F 85% 30.05 in 3.0 mi Calm Calm - N/A   Haze
8:55 AM -2.2 °F - -7.6 °F 78% 30.05 in 4.0 mi Calm Calm - N/A   Haze
9:15 AM -0.4 °F - -5.8 °F 78% 30.05 in 2.5 mi Calm Calm - N/A Snow Light Snow
9:35 AM -0.4 °F -8.3 °F -5.8 °F 78% 30.04 in 2.5 mi WSW 3.5 mph - N/A   Haze
9:55 AM 1.4 °F -6.2 °F -4.0 °F 78% 30.05 in 5.0 mi WSW 3.5 mph - N/A   Haze
10:15 AM 3.2 °F -9.1 °F -4.0 °F 72% 30.05 in 4.0 mi West 6.9 mph - N/A   Haze
10:35 AM 3.2 °F -7.8 °F -4.0 °F 72% 30.04 in 3.0 mi West 5.8 mph - N/A   Haze
10:55 AM 3.2 °F -9.1 °F -4.0 °F 72% 30.04 in 5.0 mi West 6.9 mph - N/A   Haze
11:15 AM 5.0 °F -5.6 °F -4.0 °F 66% 30.03 in 5.0 mi West 5.8 mph - N/A   Haze
11:35 AM 6.8 °F -5.9 °F -2.2 °F 67% 30.02 in 5.0 mi West 8.1 mph - N/A   Haze
11:55 AM 8.6 °F -3.7 °F -0.4 °F 67% 30.00 in 10.0 mi West 8.1 mph - N/A   Overcast
12:15 PM 8.6 °F -4.7 °F -0.4 °F 67% 29.99 in 10.0 mi West 9.2 mph - N/A   Overcast
12:35 PM 8.6 °F -4.7 °F -0.4 °F 67% 29.98 in 10.0 mi West 9.2 mph - N/A   Overcast
12:55 PM 10.4 °F 0.8 °F -0.4 °F 62% 29.97 in 7.0 mi West 5.8 mph - N/A   Overcast
1:15 PM 10.4 °F -1.5 °F 1.4 °F 67% 29.97 in 5.0 mi West 8.1 mph - N/A   Haze
1:35 PM 10.4 °F -3.3 °F 1.4 °F 67% 29.97 in 3.0 mi West 10.4 mph - N/A   Haze
1:55 PM 10.4 °F -2.4 °F 3.2 °F 73% 29.97 in 2.0 mi WNW 9.2 mph - N/A   Haze
2:15 PM 10.4 °F 0.8 °F 3.2 °F 73% 29.98 in 0.8 mi WNW 5.8 mph - N/A Snow Light Snow
2:35 PM 10.4 °F -6.0 °F 3.2 °F 73% 29.99 in 1.2 mi WNW 15.0 mph 19.6 mph N/A Snow Light Snow
2:55 PM 10.4 °F -5.4 °F 3.2 °F 73% 30.00 in 2.0 mi WNW 13.8 mph 19.6 mph N/A Snow Light Snow
3:15 PM 8.6 °F -7.0 °F -0.4 °F 67% 30.03 in 7.0 mi NW 12.7 mph 23.0 mph N/A   Overcast
3:35 PM 8.6 °F -8.3 °F 1.4 °F 73% 30.04 in 0.5 mi NW 15.0 mph 18.4 mph N/A Snow Light Snow
3:55 PM 6.8 °F -7.8 °F 1.4 °F 79% 30.06 in 4.0 mi NNW 10.4 mph - N/A   Haze
4:15 PM 6.8 °F -8.6 °F -4.0 °F 61% 30.08 in 10.0 mi NW 11.5 mph 17.3 mph N/A   Overcast
4:35 PM 5.0 °F -10.0 °F -2.2 °F 72% 30.10 in 2.0 mi NW 10.4 mph 18.4 mph N/A Snow Light Snow
4:55 PM 5.0 °F -10.0 °F -4.0 °F 66% 30.11 in 7.0 mi NNW 10.4 mph 17.3 mph N/A   Overcast
5:15 PM 5.0 °F -11.6 °F -0.4 °F 78% 30.14 in 2.5 mi NW 12.7 mph 19.6 mph N/A Snow Light Snow
5:35 PM 3.2 °F -15.3 °F -5.8 °F 66% 30.16 in 10.0 mi NNW 15.0 mph 24.2 mph N/A   Mostly Cloudy
5:55 PM 1.4 °F -14.5 °F -7.6 °F 66% 30.17 in 10.0 mi WNW 10.4 mph 17.3 mph N/A   Clear
6:15 PM 1.4 °F -14.5 °F -7.6 °F 66% 30.19 in 10.0 mi NW 10.4 mph 19.6 mph N/A   Clear
6:35 PM 1.4 °F -16.9 °F -7.6 °F 66% 30.20 in 10.0 mi NW 13.8 mph 19.6 mph N/A   Clear
6:55 PM -0.4 °F -17.6 °F -7.6 °F 72% 30.22 in 10.0 mi NW 11.5 mph 17.3 mph N/A   Clear
7:15 PM -0.4 °F -15.7 °F -7.6 °F 72% 30.25 in 10.0 mi WNW 9.2 mph 17.3 mph N/A   Clear
7:35 PM -0.4 °F -17.6 °F -7.6 °F 72% 30.26 in 10.0 mi WNW 11.5 mph 17.3 mph N/A   Scattered Clouds
7:55 PM -2.2 °F -18.9 °F -7.6 °F 78% 30.27 in 7.0 mi NW 10.4 mph 17.3 mph N/A   Scattered Clouds
8:15 PM -2.2 °F -18.9 °F -7.6 °F 78% 30.28 in 10.0 mi NW 10.4 mph 18.4 mph N/A   Scattered Clouds
8:35 PM -2.2 °F -18.0 °F -9.4 °F 71% 30.29 in 10.0 mi NW 9.2 mph - N/A   Scattered Clouds
8:55 PM -4.0 °F -20.2 °F -9.4 °F 78% 30.31 in 10.0 mi WNW 9.2 mph - N/A   Clear
9:15 PM -4.0 °F -19.0 °F -9.4 °F 78% 30.31 in 10.0 mi NW 8.1 mph - N/A   Clear
9:35 PM -4.0 °F -20.2 °F -9.4 °F 78% 30.32 in 10.0 mi NW 9.2 mph - N/A   Clear
9:55 PM -4.0 °F -19.0 °F -9.4 °F 78% 30.33 in 10.0 mi NW 8.1 mph - N/A   Clear
10:15 PM -4.0 °F -17.8 °F -9.4 °F 78% 30.34 in 10.0 mi WNW 6.9 mph - N/A   Clear
10:35 PM -4.0 °F -17.8 °F -9.4 °F 78% 30.35 in 10.0 mi WNW 6.9 mph - N/A   Clear
10:55 PM -5.8 °F -19.9 °F -9.4 °F 84% 30.37 in 10.0 mi WNW 6.9 mph - N/A   Clear
11:15 PM -5.8 °F -19.9 °F -11.2 °F 77% 30.38 in 10.0 mi NW 6.9 mph - N/A   Clear
11:35 PM -5.8 °F -22.4 °F -11.2 °F 77% 30.39 in 10.0 mi WNW 9.2 mph - N/A   Clear
11:55 PM -5.8 °F -19.9 °F -11.2 °F 77% 30.39 in 10.0 mi NW 6.9 mph - N/A   Clear